Location: Unspecified
(0.0000°N, 0.0000°E)
Time: 06:35:27
(UTC+00:00)

Vanguard 3 - Pass Details

Date: 22 November 2019
Orbit: 508 x 3263 km, 33.3° (Epoch: 11 December)

Event Time Altitude Azimuth Distance (km) Brightness Sun altitude
Rises 06:15:04 0° 194° (SSW) 3,661 10.6 6.8°
Reaches altitude 10° 06:19:15 10° 166° (SSE) 3,196 10.8 7.8°
Maximum altitude 06:22:54 13° 139° (SE) 3,364 11.6 8.7°
Drops below altitude 10° 06:27:23 10° 114° (ESE) 4,129 14.3 9.7°
Sets 06:34:35 0° 91° (E) 5,864 13.1 11.4°
